Cambridge, MD

8:01 PM EDT on August 22, 2017 (GMT -0400)
Cambridge-Dorchester

Weather History for KCGE - June, 2014

Change the Weather History Date:

Monday, June 9, 2014

  Actual Average (KESN) Record (KESN)
Temperature  
Mean Temperature 76 °F -  
Max Temperature 82 °F 84 °F 98 °F (2011)
Min Temperature 71 °F 62 °F 42 °F (1949)
Cooling Degree Days 12    
Growing Degree Days 26 (Base 50)    
Moisture  
Dew Point 63 °F    
Average Humidity 63    
Maximum Humidity 83    
Minimum Humidity 42    
Precipitation  
Precipitation 0.00 in - - ()
Sea Level Pressure  
Sea Level Pressure 29.89 in    
Wind  
Wind Speed 7 mph (South)    
Max Wind Speed 14 mph    
Max Gust Speed 21 mph    
Visibility 10 miles    
Events      
Averages and records for this station are not official NWS values.
T = Trace of Precipitation, MM = Missing Value Source: NWS Daily Summary

Daily Weather History Graph

Daily Weather History Graph

Search for Another Location

Airport or City:

Trip Planner

Search our weather history database for the weather conditions in past years. The results will help you decide how hot, cold, wet, or windy it might be!

Date:

Astronomy

Jun. 09, 2014 Rise Set
Actual Time 5:39 AM EDT 8:27 PM EDT
Civil Twilight 5:08 AM EDT 8:59 PM EDT
Nautical Twilight 4:28 AM EDT 9:38 PM EDT
Astronomical Twilight 3:43 AM EDT 10:23 PM EDT
Moon 4:48 PM EDT (6/9) 3:02 AM EDT (6/9)
Length of Visible Light 15h 51m
Length of Day
14h 47m
Waxing Gibbous, 85% of the Moon is Illuminated
Jun 9
Waxing Gibbous
Jun 13
Full
Jun 19
Last Quarter
Jun 27
New
Jul 5
First Quarter

Hourly Weather History & Observations

Time (EDT) Temp. Heat Index Dew Point Humidity Pressure Visibility Wind Dir Wind Speed Gust Speed Precip Events Conditions
12:20 AM 71.6 °F - 60.8 °F 69% 29.90 in 10.0 mi SSE 6.9 mph - N/A   Clear
12:40 AM 71.6 °F - 60.8 °F 69% 29.89 in 10.0 mi SSE 8.1 mph - N/A   Scattered Clouds
1:00 AM 71.6 °F - 60.8 °F 69% 29.89 in 10.0 mi SSE 6.9 mph - N/A   Mostly Cloudy
1:20 AM 73.4 °F - 60.8 °F 65% 29.89 in 10.0 mi South 10.4 mph - N/A   Mostly Cloudy
1:40 AM 73.4 °F - 62.6 °F 69% 29.88 in 10.0 mi South 9.2 mph 16.1 mph N/A   Mostly Cloudy
2:00 AM 73.4 °F - 62.6 °F 69% 29.88 in 10.0 mi South 6.9 mph - N/A   Mostly Cloudy
2:20 AM 77.0 °F - 64.4 °F 65% 29.88 in 10.0 mi South 9.2 mph - N/A   Mostly Cloudy
2:40 AM 77.0 °F - 64.4 °F 65% 29.88 in 10.0 mi South 9.2 mph - N/A   Mostly Cloudy
3:00 AM 77.0 °F - 64.4 °F 65% 29.88 in 10.0 mi South 8.1 mph - N/A   Mostly Cloudy
3:20 AM 77.0 °F - 62.6 °F 61% 29.88 in 10.0 mi South 8.1 mph - N/A   Scattered Clouds
3:40 AM 77.0 °F - 62.6 °F 61% 29.88 in 10.0 mi South 8.1 mph - N/A   Mostly Cloudy
4:00 AM 77.0 °F - 62.6 °F 61% 29.87 in 10.0 mi South 6.9 mph - N/A   Mostly Cloudy
4:21 AM 77.0 °F - 60.8 °F 57% 29.87 in 10.0 mi South 8.1 mph - N/A   Scattered Clouds
4:41 AM 73.4 °F - 59.0 °F 61% 29.87 in 10.0 mi South 6.9 mph - N/A   Mostly Cloudy
5:00 AM 73.4 °F - 59.0 °F 61% 29.87 in 10.0 mi South 8.1 mph - N/A   Mostly Cloudy
5:21 AM 71.6 °F - 60.8 °F 69% 29.87 in 7.0 mi South 4.6 mph - N/A   Mostly Cloudy
5:41 AM 71.6 °F - 60.8 °F 69% 29.87 in 10.0 mi Calm Calm - N/A   Mostly Cloudy
6:01 AM 71.6 °F - 60.8 °F 69% 29.87 in 10.0 mi South 3.5 mph - N/A   Scattered Clouds
6:21 AM 71.6 °F - 60.8 °F 69% 29.88 in 10.0 mi South 3.5 mph - N/A   Scattered Clouds
6:41 AM 71.6 °F - 59.0 °F 64% 29.88 in 10.0 mi South 5.8 mph - N/A   Mostly Cloudy
7:01 AM 71.6 °F - 60.8 °F 69% 29.89 in 10.0 mi South 3.5 mph - N/A   Mostly Cloudy
7:21 AM 71.6 °F - 60.8 °F 69% 29.89 in 10.0 mi South 3.5 mph - N/A   Scattered Clouds
7:41 AM 73.4 °F - 60.8 °F 65% 29.90 in 10.0 mi SSW 5.8 mph - N/A   Mostly Cloudy
8:01 AM 73.4 °F - 60.8 °F 65% 29.90 in 10.0 mi SSW 4.6 mph - N/A   Mostly Cloudy
8:21 AM 73.4 °F - 60.8 °F 65% 29.91 in 10.0 mi Calm Calm - N/A   Mostly Cloudy
8:41 AM 77.0 °F - 62.6 °F 61% 29.90 in 10.0 mi Calm Calm - N/A   Mostly Cloudy
9:01 AM 77.0 °F - 60.8 °F 57% 29.91 in 10.0 mi SSW 6.9 mph - N/A   Scattered Clouds
9:21 AM 77.0 °F - 60.8 °F 57% 29.91 in 10.0 mi South 6.9 mph - N/A   Scattered Clouds
9:41 AM 77.0 °F - 60.8 °F 57% 29.91 in 10.0 mi South 5.8 mph - N/A   Scattered Clouds
10:01 AM 77.0 °F - 60.8 °F 57% 29.91 in 10.0 mi SSW 4.6 mph - N/A   Mostly Cloudy
10:21 AM 78.8 °F - 60.8 °F 54% 29.91 in 10.0 mi SW 5.8 mph - N/A   Mostly Cloudy
10:41 AM 78.8 °F - 62.6 °F 57% 29.92 in 10.0 mi SW 9.2 mph - N/A   Mostly Cloudy
11:01 AM 78.8 °F - 60.8 °F 54% 29.91 in 10.0 mi SSW 4.6 mph - N/A   Mostly Cloudy
11:21 AM 78.8 °F - 62.6 °F 57% 29.92 in 10.0 mi South 8.1 mph - N/A   Mostly Cloudy
11:41 AM 78.8 °F - 60.8 °F 54% 29.91 in 10.0 mi SSW 8.1 mph - N/A   Scattered Clouds
12:01 PM 80.6 °F 81.8 °F 62.6 °F 54% 29.91 in 10.0 mi SSW 6.9 mph - N/A   Scattered Clouds
12:34 PM 80.6 °F 81.8 °F 62.6 °F 54% 29.91 in 10.0 mi SSW 9.2 mph - N/A   Clear
12:54 PM 80.6 °F 81.8 °F 62.6 °F 54% 29.90 in 10.0 mi South 8.1 mph - N/A   Clear
1:38 PM 80.6 °F 81.8 °F 62.6 °F 54% 29.90 in 10.0 mi SSE 9.2 mph - N/A   Clear
2:18 PM 82.4 °F 82.0 °F 57.2 °F 42% 29.89 in 10.0 mi SSE 12.7 mph 20.7 mph N/A   Clear
2:38 PM 82.4 °F 83.4 °F 62.6 °F 51% 29.89 in 10.0 mi South 11.5 mph 20.7 mph N/A   Clear
3:18 PM 82.4 °F 83.4 °F 62.6 °F 51% 29.89 in 10.0 mi South 9.2 mph 18.4 mph N/A   Clear
4:18 PM 80.6 °F 82.7 °F 66.2 °F 61% 29.90 in 10.0 mi South 4.6 mph - N/A   Scattered Clouds
4:38 PM 80.6 °F 82.3 °F 64.4 °F 58% 29.89 in 10.0 mi SSE 8.1 mph - N/A   Clear
4:58 PM 82.4 °F 83.9 °F 64.4 °F 54% 29.89 in 10.0 mi South 9.2 mph 18.4 mph N/A   Scattered Clouds
5:18 PM 80.6 °F 82.3 °F 64.4 °F 58% 29.88 in 10.0 mi South 9.2 mph 17.3 mph N/A   Scattered Clouds
5:38 PM 80.6 °F 82.3 °F 64.4 °F 58% 29.88 in 10.0 mi SSE 10.4 mph 16.1 mph N/A   Clear
5:58 PM 80.6 °F 82.3 °F 64.4 °F 58% 29.87 in 10.0 mi SSE 11.5 mph 16.1 mph N/A   Clear
6:18 PM 80.6 °F 82.3 °F 64.4 °F 58% 29.87 in 10.0 mi South 6.9 mph - N/A   Clear
6:38 PM 80.6 °F 82.7 °F 66.2 °F 61% 29.88 in 10.0 mi South 11.5 mph - N/A   Clear
6:58 PM 80.6 °F 82.3 °F 64.4 °F 58% 29.88 in 10.0 mi SSE 13.8 mph 18.4 mph N/A   Clear
7:18 PM 80.6 °F 82.7 °F 66.2 °F 61% 29.88 in 10.0 mi SSE 10.4 mph - N/A   Clear
7:38 PM 78.8 °F - 64.4 °F 61% 29.88 in 10.0 mi South 6.9 mph 16.1 mph N/A   Clear
7:58 PM 78.8 °F - 64.4 °F 61% 29.88 in 10.0 mi South 8.1 mph - N/A   Clear
8:18 PM 78.8 °F - 66.2 °F 65% 29.88 in 10.0 mi South 6.9 mph - N/A   Scattered Clouds
8:38 PM 78.8 °F - 68.0 °F 69% 29.89 in 10.0 mi SSE 8.1 mph - N/A   Clear
8:59 PM 77.0 °F - 68.0 °F 74% 29.89 in 10.0 mi SSE 4.6 mph - N/A   Clear
9:19 PM 77.0 °F - 68.0 °F 74% 29.89 in 10.0 mi SSE 3.5 mph - N/A   Scattered Clouds
9:39 PM 77.0 °F - 69.8 °F 78% 29.89 in 10.0 mi SSE 4.6 mph - N/A   Scattered Clouds
9:59 PM 77.0 °F - 69.8 °F 78% 29.89 in 10.0 mi SSE 6.9 mph - N/A   Mostly Cloudy
10:19 PM 77.0 °F - 69.8 °F 78% 29.90 in 10.0 mi South 4.6 mph - N/A   Scattered Clouds
10:59 PM 77.0 °F - 71.6 °F 83% 29.90 in 10.0 mi SSE 6.9 mph - N/A   Mostly Cloudy
11:19 PM 77.0 °F - 71.6 °F 83% 29.90 in 10.0 mi SSE 8.1 mph - N/A   Mostly Cloudy
11:39 PM 77.0 °F - 71.6 °F 83% 29.90 in 10.0 mi SSE 5.8 mph - N/A   Mostly Cloudy
11:59 PM 77.0 °F - 71.6 °F 83% 29.90 in 10.0 mi South 4.6 mph - N/A   Overcast